Location: Rowland
(34.5359°N, 79.2929°W)
Time: 15:19:05
(UTC+00:00)

SR - Pass Details

Date: 10 October 2022
Orbit: 577 x 875 km, 66.7° (Epoch: 28 November)

Event Time Altitude Azimuth Distance (km) Brightness Sun altitude
Rises 00:46:12 0° 228° (SW) 3,415 ? -24.6°
Reaches altitude 10° 00:48:50 10° 236° (WSW) 2,502 ? -25.2°
Maximum altitude 00:54:12 37° 303° (WNW) 1,328 ? -26.3°
Drops below altitude 10° 00:59:37 10° 10° (N) 2,515 ? -27.4°
Sets 01:02:17 0° 19° (NNE) 3,434 ? -27.9°
